#timestamp,LO_Frequency,Hit,StdDev 
1508868015.7,286047017.6,N
1508868035.5,286047023.4,N
1508868055.4,286047019.0,N
1508868075.2,286047020.3,N
1508868095.0,286047024.7,N
1508868095.9,286047024.7,N
1508868115.8,286047024.0,N
1508868135.6,286047028.4,Y
1508868155.4,286047011.6,P
1508868175.3,286047008.0,P
1508868195.1,286047010.9,P
1508868215.9,286047015.6,Y
1508868235.7,286047002.4,P
1508868255.5,286047004.0,N
1508868275.4,286047002.5,N
1508868295.2,286047003.7,N
1508868315.0,286046999.4,N
1508868315.9,286046999.4,N
1508868335.8,286046995.6,N
1508868355.6,286046996.8,N
1508868375.4,286046996.6,N
1508868395.3,286046999.1,N
1508868415.1,286046998.1,N
1508868416.0,286046998.1,N
1508868435.8,286047000.8,N
1508868455.7,286046994.9,N
1508868475.5,286046998.3,N
1508868495.3,286046997.7,N
1508868515.2,286046995.4,N
1508868535.9,286046994.3,N
1508868555.7,286046992.1,N
1508868575.6,286046994.3,N
1508868595.4,286046994.0,N
1508868615.2,286046993.8,N
1508868635.1,286047000.9,N
1508868636.0,286047000.9,N
1508868655.8,286046995.3,N
1508868675.7,286046991.2,N
1508868695.5,286046986.6,Y
1508868715.3,286046984.1,P
1508868735.2,286046985.1,N
1508868755.9,286046978.9,P
1508868775.7,286046978.6,Y
1508868795.6,286046992.4,P
1508868815.4,286046990.6,P
1508868835.2,286046988.7,P
1508868855.1,286046989.2,Y
1508868856.0,286046989.2,P
1508868875.8,286046995.3,P
1508868895.6,286046995.5,N
1508868915.5,286046996.3,N
1508868935.3,286046997.5,N
1508868955.1,286046997.9,N
1508868975.9,286046996.1,N
1508868995.7,286046994.4,N
1508869015.5,286046991.7,N
1508869035.4,286046991.7,N
1508869055.2,286046990.4,Y
1508869075.1,286046997.3,P
1508869076.0,286046997.3,N
1508869095.8,286046996.6,N
1508869115.6,286046999.1,N
1508869135.5,286046997.0,N
1508869155.3,286046997.2,N
1508869175.1,286046997.6,N
1508869195.9,286046998.9,N
1508869215.7,286047002.8,N
1508869235.5,286047000.8,N
1508869255.4,286046996.9,N
1508869275.2,286046996.1,N
1508869295.0,286046996.5,N
1508869295.9,286046996.5,N
1508869315.8,286046999.5,N
1508869335.6,286046996.8,N
1508869355.4,286046995.2,N
1508869375.3,286046994.2,N
1508869395.1,286046993.8,Y
1508869415.8,286046997.7,P
1508869435.7,286047001.2,P
1508869455.5,286046998.2,N
1508869475.3,286046996.5,N
1508869495.2,286047001.2,N
1508869515.0,286046996.5,N
1508869515.9,286046996.5,N
1508869535.8,286046997.2,N
1508869555.6,286046998.8,N
1508869575.4,286046999.6,N
1508869595.3,286047001.2,N
1508869615.1,286047000.4,N
1508869616.0,286047000.4,N
1508869635.8,286047001.5,N
1508869655.7,286047000.0,N
1508869675.5,286046995.6,N
1508869695.3,286046994.8,N
1508869715.2,286047002.2,N
1508869735.9,286047008.8,Y
1508869755.7,286047014.6,P
1508869775.6,286047017.7,N
1508869795.4,286047019.8,N
1508869815.2,286047024.2,N
1508869835.1,286047025.5,N
1508869836.0,286047025.5,N
1508869855.8,286047030.2,Y
1508869875.7,286047015.2,P
1508869895.5,286047016.8,P
1508869915.3,286047014.6,P
1508869935.2,286047015.0,Y
1508869955.9,286046999.0,P
1508869975.7,286046997.5,N
1508869995.6,286046999.3,N
1508870015.4,286046997.2,N
1508870035.2,286046995.8,N
1508870055.1,286046997.4,N
1508870056.0,286046997.4,N
1508870075.8,286046996.8,N
1508870095.6,286047001.2,N
1508870115.5,286046998.7,N
1508870135.3,286046996.8,N
1508870155.1,286046995.3,N
1508870175.9,286046994.1,N
1508870195.7,286046993.4,N
1508870215.5,286046996.4,N
1508870235.4,286046991.8,N
1508870255.2,286046995.4,N
1508870275.0,286046997.2,N
1508870275.9,286046997.2,N
1508870295.8,286046995.5,N
1508870315.6,286046995.2,N
1508870335.5,286046997.1,N
1508870355.3,286046995.4,N
1508870375.1,286046994.2,N
1508870395.9,286046994.0,N
1508870415.7,286046997.7,N
1508870435.5,286046995.0,N
1508870455.4,286046996.9,N
1508870475.2,286046998.0,N
1508870495.0,286046996.2,N
1508870495.9,286046996.2,N
1508870515.8,286046990.1,Y
1508870535.6,286046997.2,P
1508870555.4,286046996.6,P
1508870575.3,286047001.1,N
1508870595.1,286047000.8,N
1508870596.0,286047000.8,N
1508870615.8,286046997.3,N
1508870635.7,286046996.4,N
1508870655.5,286046997.3,N
1508870675.3,286046994.0,Y
1508870695.2,286046993.5,P
1508870715.0,286046991.7,P
1508870715.9,286046991.7,P
1508870735.7,286046993.7,N
1508870755.6,286046993.7,N
1508870775.4,286046994.6,N
1508870795.2,286046994.1,N
1508870815.1,286046993.2,Y
1508870816.0,286046993.2,P
1508870835.8,286046995.1,P
1508870855.7,286046995.9,P
1508870875.5,286046999.4,N
1508870895.3,286046996.9,N
1508870915.2,286046997.9,N
1508870935.9,286046994.9,N
1508870955.7,286046994.5,N
1508870975.6,286046991.6,Y
1508870995.4,286046996.2,P
1508871015.2,286046993.7,P
1508871035.1,286046992.3,P
1508871036.0,286046992.3,Y
1508871055.8,286046999.7,P
1508871075.7,286047004.3,N
1508871095.5,286047004.4,N
1508871115.3,286047005.2,N
1508871135.2,286047004.5,N
1508871155.9,286047005.0,N
1508871175.7,286047007.2,N
1508871195.6,286047001.5,N
1508871215.4,286047000.5,N
1508871235.2,286047001.0,N
1508871255.1,286047004.3,N
1508871256.0,286047004.3,N
1508871275.8,286047002.1,N
1508871295.6,286047003.9,N
1508871315.5,286046999.0,N
1508871335.3,286046999.2,N
1508871355.1,286046996.8,N
1508871375.9,286047002.5,N
1508871395.7,286047003.7,N
1508871415.5,286047004.9,N
1508871435.4,286047005.9,N
1508871455.2,286047005.8,N
1508871475.0,286047003.2,N
1508871475.9,286047003.2,N
1508871495.8,286047002.0,N
1508871515.6,286047002.8,N
1508871535.4,286047000.4,N
1508871555.3,286047001.4,N
1508871575.1,286047003.9,N
1508871595.8,286047005.7,N
